This is the latest recevied weather packets stored in our database for station/object JH1LWU-13. If no packets are shown the sender has not sent any weather packets the latest 10 day(s).
| Time | Temp. | Humidity | Pressure | Rain* | Wind** | Luminosity | Snow |
|---|---|---|---|---|---|---|---|
| 1777993496 | 15.56° C | 55% | 1020 hPa | 0 mm | - | - | - |
| 1777991695 | 15° C | 54% | 1019 hPa | 0 mm | - | - | - |
| 1777989894 | 15.56° C | 52% | 1021 hPa | 0 mm | - | - | - |
| 1777988093 | 15.56° C | 51% | 1021 hPa | 0 mm | - | - | - |
| 1777986292 | 15.56° C | 50% | 1019 hPa | 0 mm | - | - | - |
| 1777984491 | 15.56° C | 48% | 1020 hPa | 0 mm | - | - | - |
| 1777982690 | 15.56° C | 46% | 1019 hPa | 0 mm | - | - | - |
| 1777980889 | 15.56° C | 45% | 1019 hPa | 0 mm | - | - | - |
| 1777979088 | 16.11° C | 44% | 1018 hPa | 0 mm | - | - | - |
| 1777977287 | 16.11° C | 44% | 1020 hPa | 0 mm | - | - | - |
| 1777975486 | 16.67° C | 39% | 1017 hPa | 0 mm | - | - | - |
| 1777973685 | 17.22° C | 43% | 1018 hPa | 0 mm | - | - | - |
| 1777971884 | 17.78° C | 41% | 1017 hPa | 0 mm | - | - | - |
| 1777970083 | 18.33° C | 38% | 1017 hPa | 0 mm | - | - | - |
| 1777968282 | 18.89° C | 34% | 1016 hPa | 0 mm | - | - | - |
| 1777966481 | 20° C | 28% | 1017 hPa | 0 mm | - | - | - |
| 1777964680 | 21.11° C | 25% | 1015 hPa | 0 mm | - | - | - |
| 1777962879 | 21.11° C | 20% | 1015 hPa | 0 mm | - | - | - |
| 1777961078 | 21.67° C | 16% | 1015 hPa | 0 mm | - | - | - |
| 1777959277 | 21.67° C | 17% | 1015 hPa | 0 mm | - | - | - |
| 1777957476 | 22.22° C | 18% | 1017 hPa | 0 mm | - | - | - |
| 1777955675 | 22.22° C | 18% | 1015 hPa | 0 mm | - | - | - |
| 1777953874 | 22.22° C | 20% | 1017 hPa | 0 mm | - | - | - |
| 1777952073 | 22.22° C | 21% | 1016 hPa | 0 mm | - | - | - |
| 1777950272 | 22.78° C | 21% | 1016 hPa | 0 mm | - | - | - |
* Rain latest hour (hover to see other rain measurements)
** Current wind speed in m/s (hover to see current wind gust speed)